Location: Arthez
(43.0833°N, 0.2500°W)
Time: 03:15:07
(UTC+00:00)

Okean-O - Pass Details

Date: 23 October 2021
Orbit: 638 x 640 km, 98.2° (Epoch: 29 November)

Event Time Altitude Azimuth Distance (km) Brightness Sun altitude
Exits shadow 19:16:35 84° 7° (N) 650 2.5 -24.6°
Drops below altitude 10° 19:20:55 10° 347° (NNW) 2,041 5.4 -25.4°
Sets 19:23:07 0° 348° (NNW) 2,955 6.3 -25.8°
